Location: Feix
(45.2863°N, 1.9887°E)
Time: 00:11:44
(UTC+00:00)

Daily predictions for brighter satellites

Satellite Brightness Start Highest point End
(mag) Time Altitude Azimuth Time Altitude Azimuth Time Altitude Azimuth
USA 215 4.3 03:20:52 10° E 03:25:43 37° NE 03:25:43 37° NE
Cosmos 1943 Rocket 2.7 04:06:38 57° ENE 04:06:38 57° ENE 04:11:28 10° NNE
CZ-2C R/B 4.3 04:04:06 10° SE 04:08:53 32° ENE 04:13:24 11° N
CENTAUR R/B 2.4 04:16:08 85° E 04:16:08 85° E 04:23:04 10° NE
Cosmos 2297 3.7 04:21:07 77° ENE 04:21:07 77° ENE 04:26:30 10° NNE
NOSS 3-2 (A) 3.5 04:27:49 61° N 04:27:49 61° N 04:33:31 10° NE
Cosmos 2278 Rocket 4.3 04:33:50 14° N 04:33:50 14° N 04:34:54 10° N
NOSS 3-2 (C) 3.2 04:33:35 63° SSW 04:34:35 84° SE 04:41:00 10° NE
Envisat 3.9 04:31:22 10° NNE 04:36:18 48° E 04:41:11 10° S
Cosmos 2098 Rocket 4.4 04:37:45 10° SSE 04:41:18 38° E 04:45:42 10° NNE
Meteor 2-3 Rocket 3.6 04:36:02 10° S 04:41:42 86° WNW 04:47:28 10° N
Cosmos 968 Rocket 3.4 04:42:38 34° SSW 04:44:56 83° ESE 04:50:05 10° NNE
Genesis I 3.7 04:49:24 59° SSE 04:49:24 59° SSE 04:52:44 10° SE
Cosmos 921 Rocket 3.1 04:50:35 60° N 04:51:16 74° ENE 04:55:42 10° SSE
Meteor 1-26 Rocket 4.2 04:53:50 24° NNW 04:57:29 72° W 05:03:13 10° S
Cosmos 1812 3.0 04:56:57 48° NNE 04:57:49 64° E 05:01:37 10° SSE
Gbstr 26 Del rocket 4.4 05:01:04 24° SSW 05:01:04 24° SSW 05:03:28 10° SSE
USA 238 DEB 3.6 05:00:10 38° WSW 05:02:42 64° NW 05:09:33 10° NE
USA 238 3.6 05:00:14 38° WSW 05:02:48 64° NW 05:09:39 10° NE
Cosmos 1151 Rocket 3.2 05:01:35 19° N 05:04:41 70° E 05:09:03 10° SSE
Cosmos 2344 3.8 05:03:34 37° W 05:05:46 46° NW 05:13:27 10° NE
Cosmos 1766 Rocket 4.1 05:01:43 10° S 05:05:59 59° E 05:10:15 10° NNE
USA 215 3.2 05:02:53 10° SE 05:09:26 85° NE 05:13:03 29° NW
Cosmos 1782 3.8 05:15:55 31° SW 05:15:55 31° SW 05:18:16 10° SSW
Meteor 1-31 Rocket 2.7 05:10:50 10° NNE 05:14:44 86° ESE 05:18:39 10° SSW
Cosmos 2279 Rocket 4.0 05:09:06 10° N 05:15:20 81° E 05:21:32 10° S
Cosmos 1328 Rocket 3.8 05:12:58 10° N 05:17:22 68° E 05:21:41 10° SSE
SJ-12 3.9 05:16:04 10° N 05:20:09 61° WNW 05:24:14 10° SSW
Cosmos 2369 Rocket 2.0 05:14:49 10° SSW 05:20:24 77° WNW 05:26:02 10° NNE
FALCON 9 DEB 3.8 05:21:07 40° N 05:21:07 40° N 05:24:00 10° NE
Cosmos 1862 3.2 05:18:19 10° S 05:22:15 86° E 05:26:14 10° N
COSMO-SKYMED 1 2.5 05:19:17 10° S 05:23:33 59° W 05:25:48 27° NNW
H-2A R/B 2.9 05:24:32 10° N 05:28:06 45° WNW 05:31:41 10° SW
Cosmos 1634 Rocket 4.1 05:24:16 10° NNW 05:30:20 51° W 05:36:18 10° SSW
Cosmos 836 Rocket 4.4 05:27:51 19° NNW 05:31:37 67° WSW 05:36:47 10° S
CZ-4B R/B 3.7 05:34:01 10° NNE 05:37:29 47° E 05:40:57 10° S
CZ-4B R/B 4.0 05:37:11 10° ESE 05:39:42 20° ENE 05:42:11 10° NNE
MOS 1-B Rocket 4.5 05:34:01 10° SSW 05:39:52 38° W 05:44:43 12° NNW
Cosmos 1408 Rocket 3.9 05:37:06 10° S 05:41:21 66° E 05:45:38 10° NNE
Cosmos 1656 Rocket 3.5 05:38:42 10° SW 05:44:05 68° WNW 05:49:32 10° NNE
Cosmos 1503 Rocket 4.0 05:39:16 10° SSW 05:44:32 86° WNW 05:49:54 10° NNE
CZ-4C R/B 2.8 05:41:29 10° S 05:44:33 51° WSW 05:46:01 26° NW
DMSP B5D2-2 4.1 05:39:44 10° SSE 05:44:58 84° ENE 05:50:12 10° NNW
CZ-2C R/B 3.1 05:43:55 10° SSW 05:49:02 40° W 05:54:06 10° NNW
Cosmos 1943 Rocket 3.2 05:48:15 21° WNW 05:50:03 25° NW 05:54:40 10° N
Cosmos 1486 Rocket 4.3 05:47:12 10° SW 05:52:17 45° WNW 05:57:22 10° N
FALCON 9 DEB 4.4 05:56:51 18° NNW 05:57:26 19° N 05:59:39 10° NE
SL-8 R/B 3.7 05:54:22 20° WNW 05:57:38 84° SSW 06:02:25 10° ESE
Cosmos 1515 Rocket 3.5 05:53:18 10° N 05:57:42 83° W 06:02:02 10° S
Meteor 2-15 4.4 05:52:58 10° NNW 05:59:00 72° W 06:05:01 10° S
Cosmos 2180 Rocket 4.5 05:54:32 10° NNW 06:00:37 61° W 06:06:37 10° S
Meteor 1-27 Rocket 3.8 05:55:04 10° N 06:00:43 82° E 06:06:28 10° SSE
COSMOS 2487 4.3 06:01:38 10° N 06:04:34 27° ENE 06:07:28 10° ESE
Cosmos 773 Rocket 4.0 05:59:49 10° NNW 06:05:05 87° WSW 06:10:16 10° SSE
SJ 16-02 2.0 06:01:35 10° S 06:05:53 60° ESE 06:10:12 10° NNE
CENTAUR R/B 3.6 06:03:21 15° W 06:07:40 29° NNW 06:14:03 10° NNE
NOAA 11 4.2 06:03:41 10° N 06:09:04 59° WNW 06:14:26 10° SSW
Alouette 2 Rocket 3.7 06:07:12 10° N 06:11:04 61° ENE 06:14:35 10° SSE
Meteor 2-19 Rocket 4.4 06:06:18 10° SSW 06:12:21 72° W 06:18:25 10° N
Cosmos 1340 Rocket 3.0 06:10:13 10° S 06:14:09 77° E 06:18:09 10° NNE
NOAA 12 4.0 06:08:59 10° NNE 06:14:16 81° WNW 06:19:31 10° SSW
Envisat 4.0 06:10:59 10° N 06:15:01 24° WNW 06:19:02 10° WSW
Cosmos 1500 Rocket 3.6 06:13:07 10° S 06:17:34 89° W 06:22:04 10° N
SL-27 R/B 2.4 06:14:43 10° NNW 06:18:18 70° WSW 06:21:49 10° SSE
DELTA 2 R/B (1) 4.5 06:15:23 10° WSW 06:20:38 45° S 06:25:55 10° ESE
Cosmos 1939 Rocket 2.7 06:16:52 10° N 06:20:49 73° WNW 06:24:40 10° SSW
Cosmos 2098 Rocket 4.4 06:19:44 10° WSW 06:22:40 19° WNW 06:26:05 10° NNW
NOSS 3-2 (C) 4.4 06:21:21 10° W 06:26:20 27° NNW 06:32:01 10° NNE
Cosmos 1805 Rocket 3.9 06:24:51 10° S 06:29:13 72° E 06:33:35 10° NNE
Sich 1 3.7 06:26:51 10° S 06:31:04 58° E 06:35:16 10° NNE
Okean O Rocket 3.9 06:27:20 10° NE 06:31:12 29° E 06:35:02 10° SSE
H-2A R/B 2.4 06:27:37 10° S 06:31:42 47° W 06:35:55 10° NNW
Cosmos 2026 Rocket 4.4 06:25:37 10° S 06:31:56 74° E 06:38:14 10° NNE
Meteor 1-25 Rocket 4.4 06:27:52 10° S 06:33:30 80° E 06:39:06 10° NNE
ATLAS 3B R/B 3.0 06:27:34 10° SSW 06:34:02 72° ESE 06:40:51 10° NE
Cosmos 1174 3.0 06:34:33 10° SSW 06:37:30 88° WNW 06:40:38 10° NNE
Cosmos 1500 4.0 06:34:00 10° S 06:37:44 57° E 06:41:29 10° NNE
ATLAS 5 CENTAUR R/B 1.3 06:34:10 10° SW 06:37:59 88° SE 06:42:17 10° NE
ADEOS 4.4 06:34:42 10° N 06:39:10 29° WNW 06:43:37 10° WSW
Cosmos 158 Rocket 4.1 06:35:19 10° NNW 06:40:28 86° ENE 06:45:43 10° SSE
